Find SS 2

NORAD ID: 10544 Int'l Des: 1977-112 Owner: NRO/NRL Country: US operational
LEO

Live-Position

3D-Globus wird geladen...

Über SS 2

Beschreibung wird geladen...

Nächste Überflüge

Passes for default location (London). Set your location on the main map for personalized predictions.

Höhenverlauf

Loading altitude history...

Zweizeiliger Elementsatz

1 10544U 77112E 26132.59644730 .00000093 00000-0 61243-4 0 9996
2 10544 63.3376 83.3350 0515086 161.8892 200.1290 13.91231339347447
Epoch: 12. Mai 2026 • Age: 4 hours

Aktueller Status

Höhe 584.3 km
Geschwindigkeit 7.74 km/s
Subsatellitenpunkt -6.74°S, 116.05°E
Startdatum 8. Dez. 1977
Alter 48.4 years
Typ other

Technische Details

Klassifizierung Payload
Masse 200.00 kg
Trockenmasse 200.00 kg
Gesamtmasse 200.00 kg
Länge 0.90 m
Durchmesser 0.40 m
Spannweite 10.00 m
Form Box + Ant
Hersteller NRL
Bus-Typ NOSS SSU
Phasenstatus In Orbit
Besitzer/Staat NRO/NRL/US

Most Searched